Regional Weather Roundup
Issued by NWS Goodland, KS

Home | Current Version | Previous Version | Graphics & Text | Print | Product List | Glossary On
Versions: 1 2 3 4 5 6 7 8 9 10 11 12 13 14 15 16 17 18 19 20 21 22 23 24 25 26 27 28 29 30 31 32 33 34 35 36 37 38 39 40 41 42 43 44 45 46 47 48 49 50
000
ASUS43 KGLD 290059
RWRGLD

GOODLAND FORECAST AREA HOURLY WEATHER ROUNDUP
NATIONAL WEATHER SERVICE GOODLAND KS
700 PM MDT THU JUL 28 2016

...OFFICIAL OBSERVATIONS...

CITY           SKY/WX    TMP DP  RH WIND       PRES   REMARKS
GOODLAND KS    SUNNY     75  61  61 NE10      30.10R
HILL CITY KS   CLEAR     74  63  68 N9        30.02F
IMPERIAL NEB   SUNNY     72  61  68 NE8       30.12R
MCCOOK NEB     MOCLDY    74  61  63 NE10      30.08R
AKRON CO       CLOUDY    73  58  59 E8        30.19R
BURLINGTON CO  SUNNY     75  63  66 NE20      30.13R
LIMON CO       MOSUNNY   79  60  52 NE23G30   30.14F
$$

...UNOFFICIAL OBSERVATIONS...

CITY           SKY/WX    TMP DP  RH WIND       PRES   REMARKS
LENORA KS        N/A     71  32  23 MISG        N/A
NORTON KS      MOCLDY    70  61  73 N6        30.04R
SHARON SPRINGS   N/A     85  64  49 S5G12       N/A
KIT CARSON CO    N/A     87  60  40 MISG        N/A
YUMA CO          N/A     74  63  67 NE7         N/A
$$




USA.gov is the U.S. government's official web portal to all federal, state and local government web resources and services.